This is the latest recevied weather packets stored in our database for station/object KF0PEC-15. If no packets are shown the sender has not sent any weather packets the latest 10 day(s).
| Time | Temp. | Humidity | Pressure | Rain* | Wind** | Luminosity | Snow |
|---|---|---|---|---|---|---|---|
| 1777840050 | 22.22° C | 20% | 1005.9 hPa | 0 mm | - | 723 W/m² | - |
| 1777839520 | 21.67° C | 20% | 1006.5 hPa | 0 mm | - | 785 W/m² | - |
| 1777839020 | 21.67° C | 21% | 1006.6 hPa | 0 mm | - | 693 W/m² | - |
| 1777838480 | 21.11° C | 20% | 1007 hPa | 0 mm | - | 594 W/m² | - |
| 1777837915 | 21.67° C | 20% | 1006.9 hPa | 0 mm | - | 814 W/m² | - |
| 1777837380 | 21.11° C | 20% | 1007.5 hPa | 0 mm | - | 528 W/m² | - |
| 1777836870 | 20.56° C | 21% | 1007.8 hPa | 0 mm | - | 511 W/m² | - |
| 1777836330 | 20.56° C | 21% | 1008.2 hPa | 0 mm | - | 399 W/m² | - |
| 1777835835 | 21.11° C | 20% | 1008.1 hPa | 0 mm | - | 361 W/m² | - |
| 1777835305 | 21.67° C | 20% | 1007.5 hPa | 0 mm | - | 632 W/m² | - |
| 1777834775 | 21.67° C | 20% | 1007.9 hPa | 0 mm | - | 763 W/m² | - |
| 1777834295 | 21.11° C | 20% | 1008.2 hPa | 0 mm | - | 542 W/m² | - |
| 1777833705 | 21.67° C | 19% | 1008.2 hPa | 0 mm | - | 616 W/m² | - |
| 1777833175 | 21.67° C | 20% | 1008.4 hPa | 0 mm | - | 612 W/m² | - |
| 1777832635 | 21.67° C | 20% | 1008.5 hPa | 0 mm | - | 689 W/m² | - |
| 1777832040 | 21.11° C | 19% | 1009 hPa | 0 mm | - | 624 W/m² | - |
| 1777831510 | 20.56° C | 20% | 1009.4 hPa | 0 mm | - | 648 W/m² | - |
| 1777831025 | 20.56° C | 20% | 1009.4 hPa | 0 mm | - | 650 W/m² | - |
| 1777830465 | 20.56° C | 20% | 1009.9 hPa | 0 mm | - | 501 W/m² | - |
| 1777829875 | 20° C | 21% | 1010.4 hPa | 0 mm | - | 584 W/m² | - |
| 1777829340 | 20° C | 21% | 1010.7 hPa | 0 mm | - | 458 W/m² | - |
| 1777828805 | 20° C | 21% | 1010.6 hPa | 0 mm | - | 435 W/m² | - |
| 1777828215 | 20° C | 23% | 1011 hPa | 0 mm | - | 425 W/m² | - |
| 1777827635 | 20° C | 22% | 1010.8 hPa | 0 mm | - | 469 W/m² | - |
| 1777827115 | 19.44° C | 24% | 1011.7 hPa | 0 mm | - | 603 W/m² | - |
* Rain latest hour (hover to see other rain measurements)
** Current wind speed in m/s (hover to see current wind gust speed)